This demonstration page uses our WeatherBlox Daily Observations layout. Learn more.

Left ArrowRight Arrow

39.01783, -85.05884

Hourly Observations for August 28, 2020

Temp ( °F °C ) Dew Point ( °F °C ) Humidity (%) Winds ( mph kmh ) Pressure ( in mb ) Visibility ( mi km ) Precip ( " mm )
12:52 am 00:52 Cloudy 78 25.6 74 23.3 87 87 SSW 7 11 29.93 1014 9 14.48406 0 0
1:52 am 01:52 Cloudy 77 25 74 23.3 90 90 SSW 6 9 29.93 1013 9 14.48406 0 0
2:52 am 02:52 Cloudy 77 25 74 23.3 90 90 S 6 9 29.92 1013 9 14.48406 0 0
3:52 am 03:52 Mostly Cloudy 76 24.4 73 22.8 91 91 S 7 11 29.9 1013 8 12.87472 0 0
4:52 am 04:52 Mostly Cloudy 75 23.9 72 22.2 90 90 Calm 29.89 1012 8 12.87472 0 0
5:52 am 05:52 Mostly Cloudy 75 23.9 72 22.2 90 90 S 6 9 29.87 1012 9 14.48406 0 0
6:52 am 06:52 Cloudy 75 23.9 72 22.2 90 90 S 7 11 29.88 1012 10 16.0934 0 0
7:52 am 07:52 Mostly Cloudy 76 24.4 71 21.7 85 85 SSW 6 9 29.89 1012 10 16.0934 0 0
8:52 am 08:52 Cloudy 77 25 71 21.7 82 82 SSW 6 9 29.9 1012 10 16.0934 0 0
9:52 am 09:52 Cloudy 79 26.1 72 22.2 79 79 SSW 9 15 29.9 1012 10 16.0934 0 0
10:52 am 10:52 Cloudy 81 27.2 72 22.2 74 74 SSW 12 19 29.9 1013 10 16.0934 0 0
11:52 am 11:52 Cloudy 82 27.8 72 22.2 72 72 SSW 12 19 29.89 1012 10 16.0934 0 0
12:35 pm 12:35 Cloudy with Nearby Thunderstorms 82 27.8 72 22.2 72 72 SSW 16 26 29.85 1011 10 16.0934 0 0
12:52 pm 12:52 Cloudy with Nearby Thunderstorms 83 28.3 72 22.2 70 70 SW 10 17 29.87 1011 10 16.0934 0 0
12:55 pm 12:55 Cloudy 83 28.3 71 21.7 67 67 SSW 14 22 29.85 1011 10 16.0934 0 0
1:52 pm 13:52 Mostly Cloudy 82 27.8 71 21.7 69 69 SSW 14 22 29.83 1010 10 16.0934 0.001 0.001
2:26 pm 14:26 Cloudy with Thunderstorms 79 26.1 71 21.7 77 77 SW 10 17 29.83 1010 10 16.0934 0 0
2:41 pm 14:41 Cloudy with Thunderstorms 77 25 72 22.2 85 85 SW 14 22 29.84 1011 2.5 4.02335 0.01 0.254
2:47 pm 14:47 Cloudy with Heavy Thunderstorms 75 24 72 22 89 89 SW 16 26 29.85 1011 1.5 2.41401 0.05 1.27
2:52 pm 14:52 Cloudy with Heavy Thunderstorms 75 23.9 71 21.7 88 88 SSW 14 22 29.83 1010 1.25 2.011675 0.09 2.286
2:58 pm 14:58 Cloudy with Thunderstorms 74 23.3 70 21.1 88 88 WSW 9 15 29.82 1010 5 8.0467 0.08 2.032
3:16 pm 15:16 Mostly Cloudy with Light Rain 73 22.8 70 21.1 90 90 SSW 6 9 29.79 1009 10 16.0934 0.08 2.032
3:52 pm 15:52 Mostly Cloudy 78 25.6 72 22.2 82 82 SSW 9 15 29.76 1008 10 16.0934 0.08 2.032
4:52 pm 16:52 Mostly Cloudy 78 25.6 73 22.8 85 85 SSW 9 15 29.75 1008 10 16.0934 0.01 0.254
5:52 pm 17:52 Mostly Cloudy 82 27.8 74 23.3 77 77 SW 6 9 29.76 1008 10 16.0934 0 0
6:52 pm 18:52 Cloudy 79 26.1 73 22.8 82 82 S 6 9 29.74 1007 10 16.0934 0 0
7:52 pm 19:52 Cloudy 78 25.6 72 22.2 82 82 SSE 3 6 29.75 1007 10 16.0934 0 0
8:52 pm 20:52 Cloudy with Light Rain 77 25 73 22.8 88 88 SSE 9 15 29.75 1007 8 12.87472 0.01 0.254
9:20 pm 21:20 Cloudy with Rain 76 24.4 73 22.8 91 91 S 14 22 29.74 1007 4 6.43736 0.05 1.27
9:52 pm 21:52 Cloudy with Light Rain 75 23.9 72 22.2 90 90 S 8 13 29.75 1008 9 14.48406 0.1 2.54
10:52 pm 22:52 Cloudy with Light Rain 73 22.8 70 21.1 90 90 WSW 5 7 29.74 1007 10 16.0934 0.02 0.508
11:52 pm 23:52 Cloudy 72 22.2 70 21.1 94 94 SSW 5 7 29.72 1006 10 16.0934 0.001 0.001

Powered by AerisWeather